| time (UTC) | temp C | wind direction | speed KPH | gust KPH | rain 1hr cm | rain 24hr cm | rain mn cm | humidity % | barometer mb |
| 20260901064858 | 23 | 192 | 0.0 | 0.0 | 0.00 | 0.00 | 0.00 | 91 | 1014.9 |
| 20260901063834 | 23 | 192 | 0.0 | 0.0 | 0.00 | 0.00 | 0.00 | 90 | 1014.9 |
| 20260901062855 | 23 | 192 | 0.0 | 0.0 | 0.00 | 0.00 | 0.00 | 90 | 1014.8 |
| 20260901061910 | 23 | 192 | 0.0 | 0.0 | 0.00 | 0.00 | 0.00 | 90 | 1014.8 |
| 20260901060915 | 24 | 192 | 0.0 | 0.0 | 0.00 | 0.00 | 0.00 | 89 | 1014.9 |
| 20260901054754 | 24 | 192 | 0.0 | 0.0 | 0.00 | 0.00 | 0.00 | 88 | 1015.1 |
| 20260901053720 | 24 | 192 | 0.0 | 0.0 | 0.00 | 0.00 | 0.00 | 88 | 1015.3 |
| 20260901052704 | 25 | 192 | 0.0 | 0.0 | 0.00 | 0.00 | 0.00 | 87 | 1015.3 |
| 20260901051638 | 25 | 192 | 0.0 | 0.0 | 0.00 | 0.00 | 0.00 | 86 | 1015.2 |
| 20260901050659 | 25 | 192 | 0.0 | 0.0 | 0.00 | 0.00 | 0.00 | 84 | 1015.0 |
| 20260901042157 | 26 | 192 | 0.0 | 0.0 | 0.00 | 0.00 | 0.00 | 80 | 1014.9 |
| 20260901041203 | 26 | 192 | 0.0 | 0.0 | 0.00 | 0.00 | 0.00 | 80 | 1014.9 |
| 20260901040221 | 26 | 207 | 0.0 | 1.6 | 0.00 | 0.00 | 0.00 | 80 | 1014.7 |
| 20260901034116 | 26 | 207 | 0.0 | 1.6 | 0.00 | 0.00 | 0.00 | 81 | 1014.4 |
| 20260901033140 | 26 | 207 | 0.0 | 3.2 | 0.00 | 0.00 | 0.00 | 82 | 1014.4 |
| 20260901032158 | 25 | 208 | 0.0 | 3.2 | 0.00 | 0.00 | 0.00 | 85 | 1014.6 |
| 20260901024907 | 23 | 208 | 0.0 | 0.0 | 0.00 | 0.00 | 0.00 | 92 | 1015.3 |
| 20260901023842 | 23 | 208 | 0.0 | 0.0 | 0.00 | 0.00 | 0.00 | 92 | 1015.6 |
| 20260901022851 | 23 | 208 | 0.0 | 0.0 | 0.00 | 0.00 | 0.00 | 91 | 1015.7 |
| 20260901021859 | 23 | 208 | 0.0 | 0.0 | 0.00 | 0.00 | 0.00 | 91 | 1015.8 |
| 20260901020903 | 23 | 208 | 0.0 | 0.0 | 0.00 | 0.00 | 0.00 | 91 | 1015.7 |
| 20260901015925 | 23 | 208 | 0.0 | 0.0 | 0.00 | 0.00 | 0.00 | 90 | 1015.9 |
| 20260901014934 | 23 | 208 | 0.0 | 0.0 | 0.00 | 0.00 | 0.00 | 90 | 1016.0 |
| 20260901013936 | 24 | 208 | 0.0 | 0.0 | 0.00 | 0.00 | 0.00 | 90 | 1016.1 |
| 20260901012950 | 24 | 208 | 0.0 | 0.0 | 0.00 | 0.00 | 0.00 | 89 | 1016.3 |
| 20260901012003 | 24 | 208 | 0.0 | 0.0 | 0.00 | 0.00 | 0.00 | 89 | 1016.2 |
| 20260901011007 | 25 | 208 | 0.0 | 0.0 | 0.00 | 0.00 | 0.00 | 87 | 1016.1 |
| 20260901005940 | 25 | 208 | 0.0 | 0.0 | 0.00 | 0.00 | 0.00 | 86 | 1015.8 |
| 20260901004932 | 25 | 208 | 0.0 | 0.0 | 0.00 | 0.00 | 0.00 | 85 | 1015.7 |
| 20260901002824 | 26 | 208 | 0.0 | 0.0 | 0.00 | 0.00 | 0.00 | 84 | 1015.7 |
| 20260901001848 | 26 | 208 | 0.0 | 0.0 | 0.00 | 0.00 | 0.00 | 83 | 1015.8 |
| 20260901000822 | 27 | 208 | 0.0 | 0.0 | 0.00 | 0.00 | 0.00 | 81 | 1015.8 |
| 20260831233533 | 28 | 208 | 0.0 | 0.0 | 0.00 | 0.00 | 0.00 | 78 | 1015.6 |
| 20260831231408 | 28 | 208 | 0.0 | 0.0 | 0.00 | 0.00 | 0.00 | 76 | 1015.6 |
| 20260831230409 | 28 | 208 | 0.0 | 0.0 | 0.00 | 0.00 | 0.00 | 76 | 1015.5 |
| 20260831225406 | 28 | 208 | 0.0 | 0.0 | 0.00 | 0.00 | 0.00 | 75 | 1015.5 |
| 20260831224341 | 28 | 208 | 0.0 | 0.0 | 0.00 | 0.00 | 0.00 | 74 | 1015.5 |
| 20260831223311 | 28 | 208 | 0.0 | 0.0 | 0.00 | 0.00 | 0.00 | 74 | 1015.5 |
| 20260831222251 | 28 | 208 | 0.0 | 0.0 | 0.00 | 0.00 | 0.00 | 73 | 1015.2 |
| 20260831221302 | 28 | 208 | 0.0 | 0.0 | 0.00 | 0.00 | 0.00 | 72 | 1015.1 |
| 20260831220237 | 28 | 208 | 0.0 | 0.0 | 0.00 | 0.00 | 0.00 | 71 | 1015.0 |
| 20260831215219 | 28 | 208 | 0.0 | 0.0 | 0.00 | 0.00 | 0.00 | 70 | 1015.0 |
| 20260831213014 | 28 | 208 | 0.0 | 0.0 | 0.00 | 0.00 | 0.00 | 69 | 1015.0 |
| 20260831211947 | 29 | 209 | 0.0 | 1.6 | 0.00 | 0.00 | 0.00 | 69 | 1015.2 |
| 20260831210950 | 29 | 209 | 0.0 | 0.0 | 0.00 | 0.00 | 0.00 | 71 | 1015.3 |
| 20260831204858 | 29 | 208 | 0.0 | 3.2 | 0.00 | 0.00 | 0.00 | 69 | 1015.5 |
| 20260831201600 | 29 | 212 | 0.0 | 0.0 | 0.00 | 0.00 | 0.00 | 71 | 1015.9 |
| 20260831194301 | 29 | 212 | 0.0 | 0.0 | 0.00 | 0.00 | 0.00 | 71 | 1016.2 |
| 20260831193317 | 29 | 212 | 0.0 | 0.0 | 0.00 | 0.00 | 0.00 | 71 | 1016.3 |
| 20260831192305 | 29 | 212 | 0.0 | 1.6 | 0.00 | 0.00 | 0.00 | 69 | 1016.3 |
| 20260831191231 | 29 | 212 | 0.0 | 8.0 | 0.00 | 0.00 | 0.00 | 69 | 1016.4 |
| 20260831190159 | 29 | 180 | 0.0 | 3.2 | 0.00 | 0.00 | 0.00 | 69 | 1016.4 |
| 20260831185210 | 30 | 295 | 0.0 | 1.6 | 0.00 | 0.00 | 0.00 | 69 | 1016.5 |
| 20260831184145 | 30 | 277 | 0.0 | 1.6 | 0.00 | 0.00 | 0.00 | 69 | 1016.7 |
| 20260831182014 | 30 | 189 | 0.0 | 0.0 | 0.00 | 0.00 | 0.00 | 67 | 1016.9 |
| 20260831180959 | 30 | 287 | 1.6 | 8.0 | 0.00 | 0.00 | 0.00 | 66 | 1017.0 |
| 20260831180005 | 30 | 225 | 1.6 | 4.8 | 0.00 | 0.00 | 0.00 | 67 | 1017.0 |
| 20260831175024 | 30 | 291 | 3.2 | 8.0 | 0.00 | 0.00 | 0.00 | 65 | 1017.1 |
| 20260831174012 | 30 | 289 | 1.6 | 8.0 | 0.00 | 0.00 | 0.00 | 66 | 1017.1 |
| 20260831173003 | 30 | 255 | 1.6 | 4.8 | 0.00 | 0.00 | 0.00 | 66 | 1017.2 |
| 20260831171952 | 30 | 254 | 1.6 | 9.7 | 0.00 | 0.00 | 0.00 | 66 | 1017.3 |
| 20260831170958 | 30 | 294 | 1.6 | 9.7 | 0.00 | 0.00 | 0.00 | 64 | 1017.3 |
| 20260831165933 | 30 | 180 | 0.0 | 4.8 | 0.00 | 0.00 | 0.00 | 64 | 1017.4 |
| 20260831164906 | 30 | 190 | 0.0 | 3.2 | 0.00 | 0.00 | 0.00 | 65 | 1017.5 |
| 20260831163833 | 30 | 260 | 1.6 | 4.8 | 0.00 | 0.00 | 0.00 | 64 | 1017.5 |
| 20260831162838 | 30 | 282 | 1.6 | 4.8 | 0.00 | 0.00 | 0.00 | 64 | 1017.6 |
| 20260831161819 | 30 | 286 | 0.0 | 6.4 | 0.00 | 0.00 | 0.00 | 65 | 1017.5 |
| 20260831160836 | 29 | 291 | 1.6 | 8.0 | 0.00 | 0.00 | 0.00 | 69 | 1017.6 |
| 20260831155817 | 28 | 231 | 0.0 | 4.8 | 0.00 | 0.00 | 0.00 | 71 | 1017.6 |
| 20260831153651 | 28 | 182 | 0.0 | 8.0 | 0.00 | 0.00 | 0.00 | 73 | 1017.5 |
| 20260831152705 | 27 | 173 | 0.0 | 0.0 | 0.00 | 0.00 | 0.00 | 75 | 1017.4 |
| 20260831151643 | 27 | 173 | 0.0 | 0.0 | 0.00 | 0.00 | 0.00 | 76 | 1017.5 |
| 20260831145538 | 27 | 175 | 0.0 | 1.6 | 0.00 | 0.00 | 0.00 | 76 | 1017.4 |
| 20260831144537 | 26 | 175 | 0.0 | 0.0 | 0.00 | 0.00 | 0.00 | 78 | 1017.4 |
| 20260831143505 | 26 | 311 | 0.0 | 0.0 | 0.00 | 0.00 | 0.00 | 81 | 1017.3 |
| 20260831142433 | 25 | 311 | 0.0 | 0.0 | 0.00 | 0.00 | 0.00 | 82 | 1017.2 |
| 20260831141410 | 25 | 311 | 0.0 | 0.0 | 0.00 | 0.00 | 0.00 | 82 | 1017.1 |
| 20260831140340 | 25 | 311 | 0.0 | 0.0 | 0.00 | 0.00 | 0.00 | 82 | 1017.0 |
| 20260831134200 | 24 | 311 | 0.0 | 0.0 | 0.00 | 0.00 | 0.00 | 84 | 1017.1 |
| 20260831133158 | 23 | 311 | 0.0 | 0.0 | 0.00 | 0.00 | 0.00 | 86 | 1017.2 |
| 20260831131030 | 23 | 311 | 0.0 | 0.0 | 0.00 | 0.00 | 0.00 | 88 | 1017.4 |
| 20260831130048 | 22 | 311 | 0.0 | 0.0 | 0.00 | 0.00 | 0.00 | 90 | 1017.3 |
| 20260831125104 | 22 | 311 | 0.0 | 0.0 | 0.00 | 0.00 | 0.00 | 91 | 1017.3 |
| 20260831124123 | 22 | 311 | 0.0 | 0.0 | 0.00 | 0.00 | 0.00 | 92 | 1017.3 |
| 20260831123105 | 22 | 311 | 0.0 | 0.0 | 0.00 | 0.00 | 0.00 | 93 | 1017.3 |
| 20260831122108 | 22 | 311 | 0.0 | 0.0 | 0.00 | 0.00 | 0.00 | 93 | 1017.3 |
| 20260831121116 | 22 | 311 | 0.0 | 0.0 | 0.00 | 0.00 | 0.00 | 93 | 1017.2 |
| 20260831120051 | 21 | 325 | 0.0 | 0.0 | 0.00 | 0.00 | 0.00 | 93 | 1017.1 |
| 20260831115052 | 21 | 325 | 0.0 | 0.0 | 0.00 | 0.00 | 0.00 | 93 | 1016.9 |
| 20260831114046 | 21 | 325 | 0.0 | 0.0 | 0.00 | 0.00 | 0.00 | 94 | 1016.8 |
| 20260831113015 | 21 | 325 | 0.0 | 0.0 | 0.00 | 0.00 | 0.00 | 94 | 1016.7 |
| 20260831112016 | 21 | 318 | 0.0 | 0.0 | 0.00 | 0.00 | 0.00 | 94 | 1016.7 |
| 20260831111019 | 21 | 318 | 0.0 | 0.0 | 0.00 | 0.00 | 0.00 | 94 | 1016.6 |
| 20260831110042 | 21 | 119 | 0.0 | 0.0 | 0.00 | 0.00 | 0.00 | 95 | 1016.5 |
| 20260831105057 | 21 | 119 | 0.0 | 0.0 | 0.00 | 0.00 | 0.00 | 95 | 1016.5 |
| 20260831104118 | 21 | 119 | 0.0 | 0.0 | 0.00 | 0.00 | 0.00 | 95 | 1016.6 |
| 20260831103106 | 21 | 119 | 0.0 | 0.0 | 0.00 | 0.00 | 0.00 | 95 | 1016.6 |
| 20260831102127 | 21 | 119 | 0.0 | 0.0 | 0.00 | 0.00 | 0.00 | 95 | 1016.5 |
| 20260831101107 | 21 | 119 | 0.0 | 0.0 | 0.00 | 0.00 | 0.00 | 95 | 1016.5 |
| 20260831100114 | 21 | 119 | 0.0 | 0.0 | 0.00 | 0.00 | 0.00 | 95 | 1016.5 |
| 20260831095047 | 21 | 119 | 0.0 | 0.0 | 0.00 | 0.00 | 0.00 | 95 | 1016.5 |
| 20260831094029 | 21 | 119 | 0.0 | 0.0 | 0.00 | 0.00 | 0.00 | 95 | 1016.5 |
| 20260831093048 | 21 | 119 | 0.0 | 0.0 | 0.00 | 0.00 | 0.00 | 95 | 1016.6 |
| 20260831090900 | 21 | 119 | 0.0 | 0.0 | 0.00 | 0.00 | 0.00 | 95 | 1016.6 |
| 20260831085837 | 21 | 119 | 0.0 | 0.0 | 0.00 | 0.00 | 0.00 | 95 | 1016.6 |
| 20260831083645 | 21 | 119 | 0.0 | 0.0 | 0.00 | 0.00 | 0.00 | 95 | 1016.5 |
| 20260831082642 | 21 | 119 | 0.0 | 0.0 | 0.00 | 0.00 | 0.00 | 95 | 1016.4 |
| 20260831081650 | 21 | 119 | 0.0 | 0.0 | 0.00 | 0.00 | 0.00 | 94 | 1016.3 |
| 20260831080704 | 21 | 119 | 0.0 | 0.0 | 0.00 | 0.00 | 0.00 | 95 | 1016.2 |
| 20260831075710 | 21 | 119 | 0.0 | 0.0 | 0.00 | 0.00 | 0.00 | 94 | 1016.2 |
| 20260831074702 | 21 | 119 | 0.0 | 0.0 | 0.00 | 0.00 | 0.00 | 94 | 1016.3 |
| 20260831072553 | 21 | 119 | 0.0 | 0.0 | 0.00 | 0.00 | 0.00 | 94 | 1016.4 |
| 20260831071608 | 21 | 119 | 0.0 | 0.0 | 0.00 | 0.00 | 0.00 | 94 | 1016.5 |
| 20260831070542 | 21 | 119 | 0.0 | 0.0 | 0.00 | 0.00 | 0.00 | 94 | 1016.4 |